This demonstration page uses our WeatherBlox Daily Observations layout. Learn more.

Left ArrowRight Arrow

39.95238, -75.16362

Hourly Observations for January 24, 2022

Temp ( °F °C ) Dew Point ( °F °C ) Humidity (%) Winds ( mph kmh ) Pressure ( in mb ) Visibility ( mi km ) Precip ( " mm )
12:54 am 00:54 Cloudy 33 0.6 23 -5 66 66 WSW 5 7 29.80 1009 10 16 0.00 0.00
1:54 am 01:54 Cloudy 33 0.6 23 -5 66 66 W 7 11 29.81 1010 10 16 0.00 0.00
2:54 am 02:54 Mostly Clear 31 -0.6 21 -6.1 67 67 W 6 9 29.83 1010 10 16 0.00 0.00
3:54 am 03:54 Mostly Clear 29 -1.7 21 -6.1 72 72 N 7 11 29.84 1010 10 16 0.00 0.00
4:54 am 04:54 Partly Cloudy 28 -2.2 21 -6.1 75 75 NNW 6 9 29.86 1011 10 16 0.00 0.00
5:54 am 05:54 Partly Cloudy 29 -1.7 21 -6.1 72 72 W 3 6 29.89 1012 10 16 0.00 0.00
6:54 am 06:54 Mostly Clear 28 -2.2 21 -6.1 75 75 NNW 8 13 29.92 1013 9 14 0.00 0.00
7:54 am 07:54 Partly Cloudy 27 -2.8 18 -7.8 69 69 NNW 13 20 29.95 1014 10 16 0.00 0.00
8:54 am 08:54 Partly Cloudy 28 -2.2 17 -8.3 63 63 N 8 13 29.96 1014 10 16 0.00 0.00
9:54 am 09:54 Mostly Sunny 30 -1.1 17 -8.3 58 58 N 9 15 29.96 1015 10 16 0.00 0.00
10:54 am 10:54 Partly Cloudy 32 0 16 -8.9 52 52 VRB 5 7 29.95 1014 10 16 0.00 0.00
11:54 am 11:54 Partly Cloudy 34 1.1 15 -9.4 46 46 N 6 9 29.93 1013 10 16 0.00 0.00
12:54 pm 12:54 Partly Cloudy 35 1.7 15 -9.4 44 44 S 6 9 29.91 1013 10 16 0.00 0.00
1:54 pm 13:54 Partly Cloudy 36 2.2 15 -9.4 42 42 SE 8 13 29.87 1012 10 16 0.00 0.00
2:54 pm 14:54 Mostly Cloudy 37 2.8 16 -8.9 42 42 S 6 9 29.87 1011 10 16 0.00 0.00
3:54 pm 15:54 Mostly Cloudy 37 2.8 18 -7.8 46 46 SSW 7 11 29.87 1011 10 16 0.00 0.00
4:54 pm 16:54 Cloudy 37 2.8 19 -7.2 48 48 SSE 6 9 29.86 1011 10 16 0.00 0.00
5:54 pm 17:54 Cloudy 36 2.2 20 -6.7 52 52 SSE 7 11 29.86 1011 10 16 0.00 0.00
6:54 pm 18:54 Cloudy 36 2.2 21 -6.1 55 55 S 9 15 29.88 1012 10 16 0.00 0.00
7:54 pm 19:54 Cloudy 35 1.7 21 -6.1 57 57 SSE 9 15 29.87 1011 10 16 0.00 0.00
8:54 pm 20:54 Cloudy 36 2.2 23 -5 59 59 S 8 13 29.86 1011 10 16 0.00 0.00
9:54 pm 21:54 Cloudy 36 2.2 25 -3.9 64 64 SSW 6 9 29.85 1011 10 16 0.00 0.00
10:54 pm 22:54 Cloudy 36 2.2 26 -3.3 67 67 SSW 5 7 29.85 1011 10 16 0.00 0.00
11:54 pm 23:54 Cloudy 37 2.8 27 -2.8 67 67 Calm 29.84 1011 10 16 0.00 0.00

Powered by AerisWeather